| time (UTC) | temp F | wind direction | speed MPH | gust MPH | rain 1hr in | rain 24hr in | rain mn in | humidity % | barometer mb |
| 20260904172031 | 75 | 334 | 3.0 | 9.0 | 0.00 | 0.00 | 0.00 | 79 | 1017.8 |
| 20260904171604 | 75 | 246 | 4.0 | 9.0 | 0.00 | 0.00 | 0.00 | 78 | 1017.8 |
| 20260904171032 | 76 | 287 | 5.0 | 9.0 | 0.00 | 0.00 | 0.00 | 77 | 1017.7 |
| 20260904170532 | 76 | 260 | 2.0 | 8.0 | 0.00 | 0.00 | 0.00 | 77 | 1017.7 |
| 20260904170032 | 76 | 293 | 3.0 | 6.0 | 0.00 | 0.00 | 0.00 | 78 | 1017.7 |
| 20260904165532 | 76 | 265 | 3.0 | 8.0 | 0.00 | 0.00 | 0.00 | 78 | 1017.7 |
| 20260904165031 | 75 | 274 | 4.0 | 9.0 | 0.00 | 0.00 | 0.00 | 79 | 1017.7 |
| 20260904164531 | 76 | 279 | 5.0 | 9.0 | 0.00 | 0.00 | 0.00 | 77 | 1017.7 |
| 20260904164029 | 77 | 272 | 4.0 | 9.0 | 0.00 | 0.00 | 0.00 | 77 | 1017.7 |
| 20260904163529 | 76 | 266 | 3.0 | 9.0 | 0.00 | 0.00 | 0.00 | 77 | 1017.7 |
| 20260904163029 | 76 | 333 | 3.0 | 9.0 | 0.00 | 0.00 | 0.00 | 77 | 1017.8 |
| 20260904162529 | 76 | 302 | 5.0 | 10.0 | 0.00 | 0.00 | 0.00 | 76 | 1017.8 |
| 20260904162030 | 77 | 257 | 4.0 | 11.0 | 0.00 | 0.00 | 0.00 | 76 | 1017.9 |
| 20260904161529 | 76 | 311 | 6.0 | 11.0 | 0.00 | 0.00 | 0.00 | 76 | 1017.9 |
| 20260904161028 | 76 | 331 | 4.0 | 9.0 | 0.00 | 0.00 | 0.00 | 77 | 1017.9 |
| 20260904160528 | 76 | 261 | 5.0 | 9.0 | 0.00 | 0.00 | 0.00 | 75 | 1017.9 |
| 20260904160034 | 77 | 307 | 4.0 | 9.0 | 0.00 | 0.00 | 0.00 | 75 | 1017.9 |
| 20260904155529 | 77 | 287 | 4.0 | 9.0 | 0.00 | 0.00 | 0.00 | 75 | 1018.0 |
| 20260904155028 | 77 | 275 | 6.0 | 8.0 | 0.00 | 0.00 | 0.00 | 75 | 1017.9 |
| 20260904154537 | 77 | 288 | 5.0 | 9.0 | 0.00 | 0.00 | 0.00 | 76 | 1018.0 |
| 20260904154028 | 77 | 255 | 5.0 | 9.0 | 0.00 | 0.00 | 0.00 | 76 | 1018.1 |
| 20260904153531 | 77 | 306 | 5.0 | 9.0 | 0.00 | 0.00 | 0.00 | 76 | 1018.1 |
| 20260904153032 | 77 | 262 | 4.0 | 10.0 | 0.00 | 0.00 | 0.00 | 77 | 1018.1 |
| 20260904152523 | 76 | 275 | 4.0 | 10.0 | 0.00 | 0.00 | 0.00 | 78 | 1018.3 |
| 20260904152023 | 76 | 263 | 5.0 | 11.0 | 0.00 | 0.00 | 0.00 | 77 | 1018.3 |
| 20260904151523 | 76 | 244 | 4.0 | 11.0 | 0.00 | 0.00 | 0.00 | 77 | 1018.3 |
| 20260904151024 | 76 | 281 | 6.0 | 10.0 | 0.00 | 0.00 | 0.00 | 77 | 1018.3 |
| 20260904150523 | 76 | 273 | 5.0 | 9.0 | 0.00 | 0.00 | 0.00 | 77 | 1018.3 |
| 20260904150022 | 76 | 288 | 5.0 | 11.0 | 0.00 | 0.00 | 0.00 | 77 | 1018.3 |
| 20260904145522 | 76 | 325 | 4.0 | 11.0 | 0.00 | 0.00 | 0.00 | 77 | 1018.4 |
| 20260904145029 | 77 | 239 | 5.0 | 10.0 | 0.00 | 0.00 | 0.00 | 76 | 1018.5 |
| 20260904144522 | 76 | 229 | 6.0 | 9.0 | 0.00 | 0.00 | 0.00 | 76 | 1018.5 |
| 20260904144024 | 76 | 281 | 6.0 | 10.0 | 0.00 | 0.00 | 0.00 | 75 | 1018.5 |
| 20260904143520 | 77 | 308 | 7.0 | 11.0 | 0.00 | 0.00 | 0.00 | 75 | 1018.5 |
| 20260904143020 | 77 | 274 | 6.0 | 10.0 | 0.00 | 0.00 | 0.00 | 76 | 1018.4 |
| 20260904142521 | 77 | 283 | 5.0 | 10.0 | 0.00 | 0.00 | 0.00 | 75 | 1018.5 |
| 20260904142020 | 77 | 269 | 6.0 | 10.0 | 0.00 | 0.00 | 0.00 | 75 | 1018.5 |
| 20260904141520 | 77 | 263 | 4.0 | 9.0 | 0.00 | 0.00 | 0.00 | 76 | 1018.5 |
| 20260904141019 | 76 | 310 | 4.0 | 9.0 | 0.00 | 0.00 | 0.00 | 76 | 1018.5 |
| 20260904140519 | 76 | 281 | 5.0 | 11.0 | 0.00 | 0.00 | 0.00 | 76 | 1018.6 |
| 20260904140020 | 77 | 262 | 5.0 | 11.0 | 0.00 | 0.00 | 0.00 | 76 | 1018.7 |
| 20260904135522 | 77 | 271 | 6.0 | 10.0 | 0.00 | 0.00 | 0.00 | 77 | 1018.8 |
| 20260904135018 | 76 | 296 | 5.0 | 10.0 | 0.00 | 0.00 | 0.00 | 78 | 1018.7 |
| 20260904134519 | 76 | 270 | 6.0 | 10.0 | 0.00 | 0.00 | 0.00 | 79 | 1018.8 |
| 20260904134019 | 76 | 278 | 3.0 | 8.0 | 0.00 | 0.00 | 0.00 | 79 | 1018.8 |
| 20260904133518 | 75 | 265 | 5.0 | 9.0 | 0.00 | 0.00 | 0.00 | 79 | 1018.8 |
| 20260904133018 | 75 | 257 | 4.0 | 9.0 | 0.00 | 0.00 | 0.00 | 79 | 1019.0 |
| 20260904132518 | 75 | 265 | 4.0 | 10.0 | 0.00 | 0.00 | 0.00 | 80 | 1019.0 |
| 20260904132016 | 76 | 267 | 7.0 | 10.0 | 0.00 | 0.00 | 0.00 | 78 | 1019.0 |
| 20260904131516 | 76 | 253 | 6.0 | 10.0 | 0.00 | 0.00 | 0.00 | 78 | 1019.1 |
| 20260904131014 | 76 | 304 | 3.0 | 10.0 | 0.00 | 0.00 | 0.00 | 79 | 1019.1 |
| 20260904130513 | 75 | 284 | 2.0 | 8.0 | 0.00 | 0.00 | 0.00 | 80 | 1019.1 |
| 20260904130012 | 74 | 182 | 1.0 | 8.0 | 0.00 | 0.00 | 0.00 | 81 | 1019.3 |
| 20260904125512 | 74 | 288 | 3.0 | 10.0 | 0.00 | 0.00 | 0.00 | 81 | 1019.4 |
| 20260904125011 | 74 | 306 | 5.0 | 10.0 | 0.00 | 0.00 | 0.00 | 81 | 1019.5 |
| 20260904124509 | 74 | 259 | 6.0 | 10.0 | 0.00 | 0.00 | 0.00 | 81 | 1019.6 |
| 20260904124008 | 74 | 254 | 4.0 | 10.0 | 0.00 | 0.00 | 0.00 | 82 | 1019.7 |
| 20260904123508 | 73 | 284 | 6.0 | 10.0 | 0.00 | 0.00 | 0.00 | 82 | 1019.7 |
| 20260904123007 | 73 | 270 | 5.0 | 10.0 | 0.00 | 0.00 | 0.00 | 82 | 1019.7 |
| 20260904122506 | 73 | 308 | 4.0 | 10.0 | 0.00 | 0.00 | 0.00 | 82 | 1019.7 |
| 20260904122007 | 73 | 256 | 4.0 | 10.0 | 0.00 | 0.00 | 0.00 | 82 | 1019.7 |
| 20260904121504 | 73 | 270 | 6.0 | 9.0 | 0.00 | 0.00 | 0.00 | 82 | 1019.8 |
| 20260904121004 | 74 | 287 | 4.0 | 11.0 | 0.00 | 0.00 | 0.00 | 82 | 1019.8 |
| 20260904120503 | 73 | 281 | 4.0 | 10.0 | 0.00 | 0.00 | 0.00 | 81 | 1019.8 |
| 20260904120002 | 74 | 278 | 5.0 | 10.0 | 0.00 | 0.00 | 0.00 | 80 | 1019.8 |
| 20260904115502 | 74 | 300 | 5.0 | 9.0 | 0.00 | 0.00 | 0.00 | 80 | 1019.8 |
| 20260904115100 | 74 | 13 | 3.0 | 8.0 | 0.00 | 0.00 | 0.00 | 81 | 1019.7 |
| 20260904114604 | 74 | 298 | 3.0 | 8.0 | 0.00 | 0.00 | 0.00 | 82 | 1019.7 |
| 20260904114058 | 74 | 239 | 3.0 | 8.0 | 0.00 | 0.00 | 0.00 | 82 | 1019.8 |
| 20260904113556 | 74 | 304 | 3.0 | 8.0 | 0.00 | 0.00 | 0.00 | 81 | 1019.9 |
| 20260904113054 | 74 | 275 | 4.0 | 9.0 | 0.00 | 0.00 | 0.00 | 82 | 1020.0 |
| 20260904112553 | 74 | 312 | 4.0 | 9.0 | 0.00 | 0.00 | 0.00 | 81 | 1020.1 |
| 20260904112052 | 74 | 327 | 4.0 | 8.0 | 0.00 | 0.00 | 0.00 | 81 | 1020.1 |
| 20260904111555 | 74 | 280 | 2.0 | 8.0 | 0.00 | 0.00 | 0.00 | 80 | 1020.0 |
| 20260904111051 | 74 | 263 | 3.0 | 8.0 | 0.00 | 0.00 | 0.00 | 80 | 1020.0 |
| 20260904110550 | 75 | 261 | 2.0 | 7.0 | 0.00 | 0.00 | 0.00 | 79 | 1020.0 |
| 20260904110049 | 74 | 284 | 3.0 | 6.0 | 0.00 | 0.00 | 0.00 | 80 | 1019.9 |
| 20260904105551 | 73 | 253 | 0.0 | 4.0 | 0.00 | 0.00 | 0.00 | 82 | 1020.0 |
| 20260904105048 | 73 | 246 | 3.0 | 4.0 | 0.00 | 0.00 | 0.00 | 81 | 1020.0 |
| 20260904104606 | 73 | 302 | 1.0 | 4.0 | 0.00 | 0.00 | 0.00 | 83 | 1020.1 |
| 20260904104045 | 72 | 327 | 1.0 | 4.0 | 0.00 | 0.00 | 0.00 | 83 | 1020.1 |
| 20260904103544 | 72 | 271 | 1.0 | 7.0 | 0.00 | 0.00 | 0.00 | 83 | 1020.1 |
| 20260904103042 | 72 | 254 | 2.0 | 7.0 | 0.00 | 0.00 | 0.00 | 83 | 1020.1 |
| 20260904102541 | 72 | 243 | 2.0 | 5.0 | 0.00 | 0.00 | 0.00 | 83 | 1020.0 |
| 20260904102039 | 71 | 284 | 2.0 | 5.0 | 0.00 | 0.00 | 0.00 | 82 | 1020.0 |
| 20260904101542 | 71 | 301 | 2.0 | 5.0 | 0.00 | 0.00 | 0.00 | 82 | 1020.0 |
| 20260904101036 | 71 | 206 | 3.0 | 7.0 | 0.00 | 0.00 | 0.00 | 82 | 1020.1 |
| 20260904100535 | 71 | 275 | 3.0 | 7.0 | 0.00 | 0.00 | 0.00 | 81 | 1020.1 |
| 20260904100034 | 71 | 272 | 2.0 | 8.0 | 0.00 | 0.00 | 0.00 | 80 | 1020.1 |
| 20260904095534 | 71 | 261 | 4.0 | 8.0 | 0.00 | 0.00 | 0.00 | 80 | 1020.0 |
| 20260904095034 | 71 | 281 | 2.0 | 7.0 | 0.00 | 0.00 | 0.00 | 80 | 1019.9 |
| 20260904094548 | 71 | 279 | 2.0 | 5.0 | 0.00 | 0.00 | 0.00 | 79 | 1019.8 |
| 20260904094033 | 71 | 230 | 1.0 | 5.0 | 0.00 | 0.00 | 0.00 | 78 | 1019.8 |
| 20260904093533 | 71 | 314 | 2.0 | 5.0 | 0.00 | 0.00 | 0.00 | 77 | 1019.8 |
| 20260904093032 | 72 | 265 | 3.0 | 6.0 | 0.00 | 0.00 | 0.00 | 76 | 1019.8 |
| 20260904092531 | 72 | 317 | 2.0 | 4.0 | 0.00 | 0.00 | 0.00 | 75 | 1019.8 |
| 20260904092034 | 71 | 333 | 1.0 | 3.0 | 0.00 | 0.00 | 0.00 | 74 | 1019.8 |
| 20260904091529 | 71 | 333 | 1.0 | 3.0 | 0.00 | 0.00 | 0.00 | 74 | 1019.7 |
| 20260904091026 | 71 | 333 | 1.0 | 3.0 | 0.00 | 0.00 | 0.00 | 73 | 1019.7 |
| 20260904090530 | 71 | 333 | 0.0 | 2.0 | 0.00 | 0.00 | 0.00 | 75 | 1019.7 |
| 20260904090027 | 71 | 333 | 0.0 | 2.0 | 0.00 | 0.00 | 0.00 | 74 | 1019.8 |
| 20260904085522 | 71 | 333 | 0.0 | 2.0 | 0.00 | 0.00 | 0.00 | 73 | 1019.8 |
| 20260904085027 | 71 | 333 | 1.0 | 3.0 | 0.00 | 0.00 | 0.00 | 70 | 1019.7 |
| 20260904084520 | 71 | 333 | 1.0 | 3.0 | 0.00 | 0.00 | 0.00 | 64 | 1019.7 |
| 20260904084019 | 72 | 107 | 1.0 | 3.0 | 0.00 | 0.00 | 0.00 | 61 | 1019.7 |
| 20260904083517 | 72 | 107 | 1.0 | 3.0 | 0.00 | 0.00 | 0.00 | 53 | 1019.7 |
| 20260904083015 | 73 | 107 | 0.0 | 2.0 | 0.00 | 0.00 | 0.00 | 47 | 1019.6 |
| 20260904082515 | 73 | 107 | 0.0 | 3.0 | 0.00 | 0.00 | 0.00 | 42 | 1019.6 |
| 20260904082012 | 73 | 107 | 0.0 | 4.0 | 0.00 | 0.00 | 0.00 | 38 | 1019.6 |
| 20260904081511 | 72 | 107 | 2.0 | 4.0 | 0.00 | 0.00 | 0.00 | 37 | 1019.6 |
| 20260904081009 | 72 | 107 | 0.0 | 1.0 | 0.00 | 0.00 | 0.00 | 41 | 1019.7 |
| 20260904080509 | 71 | 107 | 0.0 | 1.0 | 0.00 | 0.00 | 0.00 | 45 | 1019.7 |
| 20260904080009 | 71 | 107 | 0.0 | 3.0 | 0.00 | 0.00 | 0.00 | 44 | 1019.6 |
| 20260904075506 | 70 | 107 | 1.0 | 4.0 | 0.00 | 0.00 | 0.00 | 39 | 1019.5 |
| 20260904075004 | 70 | 107 | 2.0 | 6.0 | 0.00 | 0.00 | 0.00 | 37 | 1019.4 |
| 20260904074502 | 69 | 99 | 4.0 | 6.0 | 0.00 | 0.00 | 0.00 | 35 | 1019.3 |
| 20260904074004 | 69 | 113 | 4.0 | 7.0 | 0.00 | 0.00 | 0.00 | 35 | 1019.3 |
| 20260904073559 | 69 | 109 | 5.0 | 7.0 | 0.00 | 0.00 | 0.00 | 35 | 1019.3 |
| 20260904073058 | 69 | 102 | 5.0 | 8.0 | 0.00 | 0.00 | 0.00 | 35 | 1019.2 |
| 20260904072557 | 68 | 110 | 5.0 | 8.0 | 0.00 | 0.00 | 0.00 | 35 | 1019.2 |
| 20260904072059 | 68 | 106 | 5.0 | 8.0 | 0.00 | 0.00 | 0.00 | 36 | 1019.2 |
| 20260904071556 | 68 | 109 | 6.0 | 9.0 | 0.00 | 0.00 | 0.00 | 37 | 1019.1 |
| 20260904071055 | 68 | 110 | 6.0 | 9.0 | 0.00 | 0.00 | 0.00 | 38 | 1019.1 |
| 20260904070555 | 68 | 113 | 5.0 | 8.0 | 0.00 | 0.00 | 0.00 | 37 | 1019.1 |
| 20260904070054 | 68 | 118 | 6.0 | 7.0 | 0.00 | 0.00 | 0.00 | 38 | 1019.0 |
| 20260904065554 | 68 | 106 | 4.0 | 7.0 | 0.00 | 0.00 | 0.00 | 39 | 1019.0 |
| 20260904065053 | 68 | 106 | 4.0 | 7.0 | 0.00 | 0.00 | 0.00 | 42 | 1019.0 |
| 20260904064603 | 68 | 98 | 3.0 | 7.0 | 0.00 | 0.00 | 0.00 | 40 | 1019.1 |
| 20260904064057 | 69 | 90 | 4.0 | 7.0 | 0.00 | 0.00 | 0.00 | 35 | 1019.1 |
| 20260904063552 | 68 | 93 | 4.0 | 7.0 | 0.00 | 0.00 | 0.00 | 36 | 1019.0 |
| 20260904063052 | 69 | 114 | 5.0 | 8.0 | 0.00 | 0.00 | 0.00 | 40 | 1019.0 |
| 20260904062550 | 69 | 110 | 6.0 | 8.0 | 0.00 | 0.00 | 0.00 | 39 | 1018.9 |
| 20260904062051 | 69 | 113 | 6.0 | 9.0 | 0.00 | 0.00 | 0.00 | 38 | 1018.9 |
| 20260904061550 | 69 | 107 | 7.0 | 8.0 | 0.00 | 0.00 | 0.00 | 36 | 1018.9 |
| 20260904061051 | 69 | 108 | 7.0 | 8.0 | 0.00 | 0.00 | 0.00 | 34 | 1018.9 |
| 20260904060550 | 69 | 113 | 6.0 | 8.0 | 0.00 | 0.00 | 0.00 | 37 | 1018.8 |
| 20260904060115 | 69 | 116 | 6.0 | 8.0 | 0.00 | 0.00 | 0.00 | 36 | 1018.8 |
| 20260904055549 | 69 | 100 | 6.0 | 10.0 | 0.00 | 0.00 | 0.00 | 38 | 1018.7 |
| 20260904055049 | 68 | 111 | 8.0 | 10.0 | 0.00 | 0.00 | 0.00 | 40 | 1018.6 |
| 20260904054549 | 68 | 110 | 8.0 | 10.0 | 0.00 | 0.00 | 0.00 | 39 | 1018.7 |
| 20260904054048 | 68 | 109 | 7.0 | 10.0 | 0.00 | 0.00 | 0.00 | 42 | 1018.6 |
| 20260904053547 | 68 | 110 | 8.0 | 10.0 | 0.00 | 0.00 | 0.00 | 43 | 1018.6 |
| 20260904053136 | 68 | 112 | 7.0 | 9.0 | 0.00 | 0.00 | 0.00 | 44 | 1018.6 |
| 20260904052547 | 68 | 107 | 7.0 | 9.0 | 0.00 | 0.00 | 0.00 | 39 | 1018.7 |
| 20260904052047 | 68 | 110 | 7.0 | 9.0 | 0.00 | 0.00 | 0.00 | 37 | 1018.7 |
| 20260904051605 | 68 | 112 | 6.0 | 10.0 | 0.00 | 0.00 | 0.00 | 37 | 1018.7 |
| 20260904051046 | 68 | 121 | 7.0 | 10.0 | 0.00 | 0.00 | 0.00 | 36 | 1018.7 |
| 20260904050545 | 68 | 117 | 7.0 | 10.0 | 0.00 | 0.00 | 0.00 | 43 | 1018.8 |
| 20260904050046 | 68 | 110 | 7.0 | 9.0 | 0.00 | 0.00 | 0.00 | 47 | 1018.7 |
| 20260904045545 | 69 | 106 | 7.0 | 8.0 | 0.00 | 0.00 | 0.00 | 48 | 1018.6 |
| 20260904045045 | 69 | 106 | 6.0 | 8.0 | 0.00 | 0.00 | 0.00 | 46 | 1018.7 |
| 20260904044558 | 69 | 96 | 5.0 | 8.0 | 0.00 | 0.00 | 0.00 | 45 | 1018.7 |
| 20260904044045 | 69 | 106 | 6.0 | 8.0 | 0.00 | 0.00 | 0.00 | 45 | 1018.7 |
| 20260904043544 | 69 | 105 | 6.0 | 8.0 | 0.00 | 0.00 | 0.00 | 43 | 1018.7 |
| 20260904043044 | 69 | 112 | 6.0 | 8.0 | 0.00 | 0.00 | 0.00 | 41 | 1018.6 |
| 20260904042544 | 69 | 119 | 6.0 | 9.0 | 0.00 | 0.00 | 0.00 | 40 | 1018.5 |
| 20260904042044 | 68 | 118 | 7.0 | 10.0 | 0.00 | 0.00 | 0.00 | 39 | 1018.5 |
| 20260904041546 | 68 | 113 | 8.0 | 10.0 | 0.00 | 0.00 | 0.00 | 43 | 1018.5 |
| 20260904041043 | 68 | 115 | 8.0 | 10.0 | 0.00 | 0.00 | 0.00 | 44 | 1018.5 |
| 20260904040542 | 68 | 108 | 8.0 | 10.0 | 0.00 | 0.00 | 0.00 | 44 | 1018.6 |
| 20260904040048 | 68 | 107 | 7.0 | 9.0 | 0.00 | 0.00 | 0.00 | 44 | 1018.6 |
| 20260904035540 | 69 | 105 | 6.0 | 8.0 | 0.00 | 0.00 | 0.00 | 43 | 1018.8 |
| 20260904035042 | 69 | 103 | 4.0 | 6.0 | 0.00 | 0.00 | 0.00 | 44 | 1018.9 |
| 20260904034540 | 69 | 107 | 2.0 | 6.0 | 0.00 | 0.00 | 0.00 | 45 | 1018.9 |
| 20260904034040 | 69 | 112 | 3.0 | 8.0 | 0.00 | 0.00 | 0.00 | 44 | 1018.9 |
| 20260904033540 | 69 | 119 | 5.0 | 8.0 | 0.00 | 0.00 | 0.00 | 40 | 1018.9 |
| 20260904033052 | 69 | 110 | 4.0 | 8.0 | 0.00 | 0.00 | 0.00 | 39 | 1018.9 |
| 20260904032538 | 69 | 109 | 5.0 | 8.0 | 0.00 | 0.00 | 0.00 | 39 | 1018.9 |
| 20260904032038 | 69 | 103 | 6.0 | 9.0 | 0.00 | 0.00 | 0.00 | 39 | 1018.9 |
| 20260904031538 | 69 | 112 | 7.0 | 9.0 | 0.00 | 0.00 | 0.00 | 41 | 1018.8 |
| 20260904031038 | 69 | 96 | 7.0 | 8.0 | 0.00 | 0.00 | 0.00 | 42 | 1018.8 |
| 20260904030537 | 69 | 113 | 7.0 | 8.0 | 0.00 | 0.00 | 0.00 | 42 | 1018.9 |
| 20260904030036 | 69 | 103 | 6.0 | 8.0 | 0.00 | 0.00 | 0.00 | 42 | 1019.0 |
| 20260904025535 | 69 | 107 | 6.0 | 9.0 | 0.00 | 0.00 | 0.00 | 42 | 1019.2 |
| 20260904025035 | 69 | 111 | 7.0 | 9.0 | 0.00 | 0.00 | 0.00 | 41 | 1019.4 |
| 20260904024535 | 69 | 109 | 7.0 | 9.0 | 0.00 | 0.00 | 0.00 | 40 | 1019.4 |
| 20260904024033 | 69 | 113 | 6.0 | 8.0 | 0.00 | 0.00 | 0.00 | 42 | 1019.4 |
| 20260904023531 | 69 | 112 | 6.0 | 9.0 | 0.00 | 0.00 | 0.00 | 42 | 1019.4 |
| 20260904023034 | 69 | 107 | 7.0 | 10.0 | 0.00 | 0.00 | 0.00 | 42 | 1019.5 |
| 20260904022530 | 69 | 112 | 8.0 | 10.0 | 0.00 | 0.00 | 0.00 | 41 | 1019.6 |
| 20260904022030 | 68 | 101 | 7.0 | 10.0 | 0.00 | 0.00 | 0.00 | 44 | 1019.6 |
| 20260904021532 | 68 | 107 | 7.0 | 9.0 | 0.00 | 0.00 | 0.00 | 45 | 1019.7 |
| 20260904021028 | 68 | 108 | 6.0 | 9.0 | 0.00 | 0.00 | 0.00 | 46 | 1019.7 |
| 20260904020528 | 68 | 114 | 7.0 | 9.0 | 0.00 | 0.00 | 0.00 | 47 | 1019.6 |
| 20260904020028 | 68 | 105 | 6.0 | 9.0 | 0.00 | 0.00 | 0.00 | 48 | 1019.7 |
| 20260904015527 | 68 | 109 | 7.0 | 9.0 | 0.00 | 0.00 | 0.00 | 48 | 1019.8 |
| 20260904015026 | 68 | 105 | 7.0 | 9.0 | 0.00 | 0.00 | 0.00 | 48 | 1019.8 |
| 20260904014527 | 68 | 115 | 7.0 | 9.0 | 0.00 | 0.00 | 0.00 | 45 | 1019.9 |
| 20260904014024 | 68 | 107 | 7.0 | 10.0 | 0.00 | 0.00 | 0.00 | 46 | 1020.0 |
| 20260904013522 | 68 | 115 | 7.0 | 10.0 | 0.00 | 0.00 | 0.00 | 47 | 1020.1 |
| 20260904013022 | 68 | 109 | 6.0 | 10.0 | 0.00 | 0.00 | 0.00 | 49 | 1020.2 |
| 20260904012525 | 68 | 119 | 6.0 | 10.0 | 0.00 | 0.00 | 0.00 | 50 | 1020.1 |
| 20260904012020 | 67 | 108 | 6.0 | 9.0 | 0.00 | 0.00 | 0.00 | 51 | 1020.1 |
| 20260904011519 | 67 | 99 | 7.0 | 9.0 | 0.00 | 0.00 | 0.00 | 52 | 1020.2 |
| 20260904011017 | 67 | 117 | 6.0 | 8.0 | 0.00 | 0.00 | 0.00 | 57 | 1020.3 |
| 20260904010521 | 67 | 116 | 5.0 | 8.0 | 0.00 | 0.00 | 0.00 | 59 | 1020.4 |
| 20260904010017 | 67 | 96 | 6.0 | 8.0 | 0.00 | 0.00 | 0.00 | 57 | 1020.4 |
| 20260904005516 | 67 | 105 | 5.0 | 8.0 | 0.00 | 0.00 | 0.00 | 60 | 1020.4 |
| 20260904005014 | 67 | 119 | 6.0 | 8.0 | 0.00 | 0.00 | 0.00 | 61 | 1020.5 |
| 20260904004513 | 67 | 112 | 6.0 | 8.0 | 0.00 | 0.00 | 0.00 | 65 | 1020.5 |
| 20260904004012 | 66 | 116 | 5.0 | 8.0 | 0.00 | 0.00 | 0.00 | 69 | 1020.5 |
| 20260904003512 | 66 | 90 | 6.0 | 8.0 | 0.00 | 0.00 | 0.00 | 71 | 1020.6 |
| 20260904003010 | 66 | 107 | 6.0 | 8.0 | 0.00 | 0.00 | 0.00 | 73 | 1020.6 |
| 20260904002610 | 65 | 103 | 6.0 | 8.0 | 0.00 | 0.00 | 0.00 | 75 | 1020.6 |
| 20260904002011 | 64 | 104 | 3.0 | 6.0 | 0.00 | 0.00 | 0.00 | 81 | 1020.7 |
| 20260904001508 | 65 | 96 | 0.0 | 5.0 | 0.00 | 0.00 | 0.00 | 84 | 1020.7 |
| 20260904001007 | 67 | 181 | 1.0 | 6.0 | 0.00 | 0.00 | 0.00 | 86 | 1020.7 |
| 20260904000509 | 68 | 141 | 2.0 | 6.0 | 0.00 | 0.00 | 0.00 | 85 | 1020.7 |
| 20260904000006 | 68 | 127 | 2.0 | 6.0 | 0.00 | 0.00 | 0.00 | 82 | 1020.8 |
| 20260903235505 | 68 | 172 | 3.0 | 6.0 | 0.00 | 0.00 | 0.00 | 81 | 1020.8 |
| 20260903235004 | 67 | 183 | 0.0 | 0.0 | 0.00 | 0.00 | 0.00 | 76 | 1020.9 |
| 20260903234505 | 67 | 168 | 0.0 | 2.0 | 0.00 | 0.00 | 0.00 | 68 | 1020.8 |
| 20260903234004 | 67 | 194 | 0.0 | 3.0 | 0.00 | 0.00 | 0.00 | 74 | 1020.8 |
| 20260903233502 | 67 | 197 | 1.0 | 4.0 | 0.00 | 0.00 | 0.00 | 70 | 1020.8 |
| 20260903233001 | 67 | 85 | 0.0 | 3.0 | 0.00 | 0.00 | 0.00 | 74 | 1020.8 |
| 20260903232501 | 67 | 85 | 2.0 | 4.0 | 0.00 | 0.00 | 0.00 | 73 | 1020.7 |
| 20260903232100 | 67 | 85 | 2.0 | 4.0 | 0.00 | 0.00 | 0.00 | 73 | 1020.7 |
| 20260903231559 | 67 | 86 | 0.0 | 3.0 | 0.00 | 0.00 | 0.00 | 77 | 1020.7 |
| 20260903231057 | 68 | 86 | 1.0 | 3.0 | 0.00 | 0.00 | 0.00 | 80 | 1020.7 |
| 20260903230558 | 68 | 86 | 0.0 | 0.0 | 0.00 | 0.00 | 0.00 | 80 | 1020.6 |
| 20260903230110 | 68 | 86 | 0.0 | 1.0 | 0.00 | 0.00 | 0.00 | 79 | 1020.6 |
| 20260903225556 | 68 | 86 | 0.0 | 2.0 | 0.00 | 0.00 | 0.00 | 79 | 1020.6 |
| 20260903225055 | 68 | 86 | 0.0 | 2.0 | 0.00 | 0.00 | 0.00 | 79 | 1020.6 |
| 20260903224626 | 68 | 86 | 0.0 | 1.0 | 0.00 | 0.00 | 0.00 | 80 | 1020.5 |
| 20260903224055 | 68 | 85 | 0.0 | 4.0 | 0.00 | 0.00 | 0.00 | 82 | 1020.6 |
| 20260903223555 | 68 | 85 | 0.0 | 4.0 | 0.00 | 0.00 | 0.00 | 82 | 1020.6 |
| 20260903223130 | 67 | 86 | 2.0 | 3.0 | 0.00 | 0.00 | 0.00 | 83 | 1020.6 |
| 20260903222554 | 68 | 21 | 0.0 | 3.0 | 0.00 | 0.00 | 0.00 | 86 | 1020.6 |
| 20260903222054 | 68 | 21 | 0.0 | 3.0 | 0.00 | 0.00 | 0.00 | 86 | 1020.6 |
| 20260903221555 | 68 | 88 | 0.0 | 4.0 | 0.00 | 0.00 | 0.00 | 87 | 1020.6 |
| 20260903221058 | 67 | 88 | 2.0 | 4.0 | 0.00 | 0.00 | 0.00 | 89 | 1020.4 |
| 20260903220554 | 66 | 88 | 2.0 | 4.0 | 0.00 | 0.00 | 0.00 | 91 | 1020.5 |
| 20260903220056 | 67 | 71 | 0.0 | 2.0 | 0.00 | 0.00 | 0.00 | 92 | 1020.5 |
| 20260903215555 | 67 | 26 | 1.0 | 2.0 | 0.00 | 0.00 | 0.00 | 92 | 1020.7 |
| 20260903215053 | 67 | 146 | 0.0 | 0.0 | 0.00 | 0.00 | 0.00 | 93 | 1020.9 |
| 20260903214602 | 67 | 146 | 0.0 | 0.0 | 0.00 | 0.00 | 0.00 | 93 | 1020.8 |
| 20260903214052 | 67 | 146 | 0.0 | 0.0 | 0.00 | 0.00 | 0.00 | 92 | 1020.5 |
| 20260903213551 | 67 | 146 | 0.0 | 1.0 | 0.00 | 0.00 | 0.00 | 92 | 1020.5 |
| 20260903213106 | 67 | 146 | 0.0 | 2.0 | 0.00 | 0.00 | 0.00 | 92 | 1020.6 |
| 20260903212551 | 67 | 146 | 0.0 | 2.0 | 0.00 | 0.00 | 0.00 | 92 | 1020.5 |
| 20260903212050 | 67 | 146 | 0.0 | 3.0 | 0.00 | 0.00 | 0.00 | 92 | 1020.4 |
| 20260903211549 | 67 | 146 | 0.0 | 3.0 | 0.00 | 0.00 | 0.00 | 92 | 1020.3 |
| 20260903211050 | 67 | 146 | 1.0 | 4.0 | 0.00 | 0.00 | 0.00 | 92 | 1020.1 |
| 20260903210548 | 67 | 146 | 1.0 | 4.0 | 0.00 | 0.00 | 0.00 | 92 | 1020.0 |
| 20260903210111 | 67 | 259 | 0.0 | 3.0 | 0.00 | 0.00 | 0.00 | 92 | 1019.9 |
| 20260903205548 | 68 | 259 | 1.0 | 3.0 | 0.00 | 0.00 | 0.00 | 91 | 1019.9 |
| 20260903205046 | 68 | 259 | 2.0 | 3.0 | 0.00 | 0.00 | 0.00 | 91 | 1019.7 |
| 20260903204546 | 68 | 259 | 2.0 | 3.0 | 0.00 | 0.00 | 0.00 | 91 | 1019.4 |
| 20260903204054 | 68 | 259 | 0.0 | 2.0 | 0.00 | 0.00 | 0.00 | 91 | 1019.3 |
| 20260903203546 | 68 | 259 | 0.0 | 1.0 | 0.00 | 0.00 | 0.00 | 90 | 1019.2 |
| 20260903203044 | 68 | 259 | 0.0 | 2.0 | 0.00 | 0.00 | 0.00 | 90 | 1019.3 |
| 20260903202544 | 68 | 259 | 0.0 | 2.0 | 0.00 | 0.00 | 0.00 | 90 | 1019.2 |
| 20260903202044 | 68 | 259 | 0.0 | 1.0 | 0.00 | 0.00 | 0.00 | 90 | 1019.2 |
| 20260903201544 | 68 | 259 | 0.0 | 3.0 | 0.00 | 0.00 | 0.00 | 90 | 1019.3 |
| 20260903201043 | 68 | 259 | 1.0 | 4.0 | 0.00 | 0.00 | 0.00 | 89 | 1019.2 |
| 20260903200543 | 68 | 259 | 2.0 | 4.0 | 0.00 | 0.00 | 0.00 | 89 | 1019.2 |
| 20260903200043 | 69 | 297 | 2.0 | 5.0 | 0.00 | 0.00 | 0.00 | 88 | 1019.0 |
| 20260903195543 | 69 | 297 | 2.0 | 3.0 | 0.00 | 0.00 | 0.00 | 87 | 1018.7 |
| 20260903195043 | 69 | 297 | 1.0 | 3.0 | 0.00 | 0.00 | 0.00 | 87 | 1018.7 |
| 20260903194548 | 69 | 297 | 1.0 | 4.0 | 0.00 | 0.00 | 0.00 | 86 | 1018.7 |
| 20260903194042 | 69 | 297 | 2.0 | 4.0 | 0.00 | 0.00 | 0.00 | 86 | 1018.7 |
| 20260903193542 | 70 | 297 | 0.0 | 2.0 | 0.00 | 0.00 | 0.00 | 86 | 1018.5 |
| 20260903193045 | 70 | 297 | 0.0 | 3.0 | 0.00 | 0.00 | 0.00 | 85 | 1018.5 |
| 20260903192542 | 70 | 297 | 1.0 | 4.0 | 0.00 | 0.00 | 0.00 | 85 | 1018.7 |
| 20260903192042 | 70 | 297 | 1.0 | 6.0 | 0.00 | 0.00 | 0.00 | 84 | 1018.6 |
| 20260903191541 | 71 | 290 | 2.0 | 4.0 | 0.00 | 0.00 | 0.00 | 83 | 1018.6 |
| 20260903191042 | 71 | 304 | 2.0 | 6.0 | 0.00 | 0.00 | 0.00 | 83 | 1018.5 |
| 20260903190541 | 72 | 275 | 0.0 | 3.0 | 0.00 | 0.00 | 0.00 | 82 | 1018.5 |
| 20260903190040 | 72 | 275 | 0.0 | 6.0 | 0.00 | 0.00 | 0.00 | 82 | 1018.5 |
| 20260903185641 | 72 | 275 | 2.0 | 7.0 | 0.00 | 0.00 | 0.00 | 81 | 1018.6 |
| 20260903185040 | 72 | 265 | 4.0 | 7.0 | 0.00 | 0.00 | 0.00 | 81 | 1018.6 |
| 20260903184549 | 72 | 290 | 2.0 | 7.0 | 0.00 | 0.00 | 0.00 | 81 | 1018.5 |
| 20260903184041 | 72 | 265 | 3.0 | 7.0 | 0.00 | 0.00 | 0.00 | 80 | 1018.4 |
| 20260903183539 | 73 | 253 | 2.0 | 5.0 | 0.00 | 0.00 | 0.00 | 80 | 1018.3 |
| 20260903183040 | 73 | 286 | 2.0 | 5.0 | 0.00 | 0.00 | 0.00 | 80 | 1018.4 |
| 20260903182539 | 73 | 265 | 2.0 | 8.0 | 0.00 | 0.00 | 0.00 | 79 | 1018.3 |
| 20260903182039 | 73 | 256 | 4.0 | 7.0 | 0.00 | 0.00 | 0.00 | 79 | 1018.4 |
| 20260903181539 | 74 | 262 | 4.0 | 7.0 | 0.00 | 0.00 | 0.00 | 79 | 1018.2 |
| 20260903181039 | 74 | 268 | 2.0 | 8.0 | 0.00 | 0.00 | 0.00 | 79 | 1018.4 |
| 20260903180539 | 74 | 336 | 4.0 | 8.0 | 0.00 | 0.00 | 0.00 | 79 | 1018.4 |
| 20260903180039 | 73 | 296 | 3.0 | 8.0 | 0.00 | 0.00 | 0.00 | 79 | 1018.3 |
| 20260903175537 | 74 | 272 | 5.0 | 8.0 | 0.00 | 0.00 | 0.00 | 78 | 1018.3 |
| 20260903175037 | 74 | 330 | 2.0 | 5.0 | 0.00 | 0.00 | 0.00 | 79 | 1018.3 |
| 20260903174537 | 74 | 276 | 1.0 | 7.0 | 0.00 | 0.00 | 0.00 | 80 | 1018.4 |
| 20260903174037 | 73 | 159 | 2.0 | 8.0 | 0.00 | 0.00 | 0.00 | 79 | 1018.4 |
| 20260903173537 | 73 | 267 | 3.0 | 8.0 | 0.00 | 0.00 | 0.00 | 79 | 1018.5 |
| 20260903173035 | 74 | 279 | 5.0 | 9.0 | 0.00 | 0.00 | 0.00 | 79 | 1018.6 |
| 20260903172536 | 74 | 284 | 4.0 | 9.0 | 0.00 | 0.00 | 0.00 | 79 | 1018.7 |